Theta_e
348 346 346 347 348 348 347 346 347 348 346 352 354 354 355 356 356 353 353 355 355 356 356 355 357 356 354 352 352 351 350 352 351 350 349 351 354 354 352 353 352 352 351
348 348 347 348 347 345 345 345 348 347 350 354 354 356 357 355 356 360 359 356 357 356 359 357 357 356 356 355 352 352 350 350 351 351 349 352 352 352 354 354 353 351 352
348 348 348 347 347 347 347 349 345 346 350 352 357 359 360 361 360 361 361 360 358 357 358 359 356 355 356 354 352 352 351 351 351 352 351 348 349 350 353 354 353 352 351
350 349 349 350 349 349 348 347 348 350 353 358 360 361 361 360 360 360 359 359 356 354 354 357 355 355 355 353 351 351 352 348 348 349 348 349 346 350 351 352 351 351 351
351 352 354 354 353 353 352 353 354 358 360 361 360 359 358 359 358 358 361 360 357 356 353 353 354 354 351 348 346 348 347 347 347 347 349 350 345 346 350 349 350 349 349
354 354 355 355 354 355 357 360 360 359 358 359 358 356 354 350 349 352 354 360 359 359 358 356 352 347 343 341 339 339 341 346 350 350 348 346 343 344 349 350 349 349 350
354 357 358 359 358 358 358 357 356 355 354 353 351 349 343 337 341 349 353 357 357 356 355 354 352 349 345 348 349 346 345 340 341 347 348 345 348 349 349 350 350 350 352
359 359 358 357 355 353 352 351 348 348 348 344 342 340 337 328 331 337 344 350 349 348 349 348 350 349 346 347 349 349 350 349 349 348 349 350 350 350 350 349 350 351 349
356 355 354 351 348 346 344 342 340 339 336 335 335 335 334 327 324 329 341 342 344 346 342 343 345 345 344 344 347 346 346 346 345 343 342 343 342 343 344 345 346 348 349
350 346 343 340 339 338 338 338 337 335 335 334 334 332 330 331 323 323 331 333 337 340 341 338 334 333 337 338 338 339 343 342 340 340 342 342 343 344 343 345 345 345 345
339 338 336 337 337 337 336 336 336 335 334 332 331 332 330 328 325 324 327 329 331 331 331 331 329 327 326 326 328 332 331 325 330 332 333 337 339 340 339 340 340 341 341
337 336 337 337 335 334 334 333 333 332 332 332 331 329 330 330 325 325 326 329 332 332 332 331 328 328 328 329 330 331 332 334 334 333 333 334 334 334 333 334 335 335 336
336 337 337 336 334 333 332 331 331 330 330 330 329 329 329 328 328 327 327 327 329 330 329 327 327 328 330 330 326 327 329 329 330 331 330 330 329 329 329 330 329 330 330
337 337 335 334 333 332 331 330 329 329 329 329 329 328 325 321 321 324 328 330 329 330 330 329 328 327 326 326 326 326 324 322 323 324 324 325 324 324 324 324 324 324 325
336 336 334 332 332 331 330 329 330 328 326 323 321 320 318 315 312 312 316 319 322 323 324 323 322 320 318 316 315 314 313 313 313 312 312 313 313 313 314 314 316 317 318
335 335 334 332 332 330 329 327 321 317 315 316 315 315 312 310 309 309 308 308 311 314 315 316 316 315 315 315 314 314 313 313 312 312 312 312 312 312 313 313 314 315 316
334 333 333 332 331 329 328 325 321 315 311 312 313 314 313 311 311 311 312 312 313 315 316 316 316 316 316 315 315 315 314 313 313 312 312 311 311 311 311 311 312 313 314
333 331 331 330 330 329 328 326 323 319 317 315 313 312 312 312 312 312 314 315 317 316 316 317 317 317 317 317 316 315 315 314 312 311 311 310 310 310 310 310 311 311 312
330 328 327 327 328 328 328 325 324 323 320 319 317 316 315 315 315 314 314 318 317 317 317 317 317 316 316 316 316 316 316 315 313 312 310 309 309 309 309 309 309 310 311
326 326 326 328 327 328 326 324 323 322 319 318 318 318 318 317 319 318 318 317 316 316 317 317 317 316 316 316 316 316 315 315 314 311 310 309 308 307 308 308 308 308 309
327 327 328 328 327 327 326 325 322 320 318 318 318 318 316 316 316 316 315 315 316 315 316 316 316 316 316 315 315 315 314 314 313 311 309 308 308 307 307 307 307 307 307
326 327 326 326 326 325 326 323 319 318 317 316 316 314 312 315 314 314 314 314 313 312 312 312 313 313 313 314 314 314 314 313 312 310 308 308 307 306 306 306 306 306 306
325 324 324 324 324 322 320 318 317 317 317 315 315 314 313 313 313 313 312 312 312 311 311 310 310 310 312 313 313 313 313 310 309 308 307 306 305 306 306 305 305 305 306
325 322 321 321 320 318 317 317 318 317 317 316 314 313 313 313 313 313 313 313 312 311 310 309 309 309 310 310 310 311 310 308 305 305 304 304 305 305 304 304 304 306 307
323 321 319 318 316 317 317 318 317 317 316 316 315 314 314 314 314 314 314 313 313 311 309 308 309 310 311 311 311 310 307 302 301 301 302 303 303 303 303 304 306 307 308
320 320 318 318 318 318 318 319 319 318 318 317 316 315 315 315 315 315 314 314 313 311 308 308 308 308 308 308 307 305 301 301 301 301 300 301 302 303 305 306 307 308 308
Wind_Speed
22 22 21 20 19 18 17 17 16 14 11 11 10 11 12 14 14 14 13 11 12 14 16 16 16 15 14 13 13 14 15 14 15 15 15 9 9 10 8 6 11 16 18
19 19 19 17 16 17 16 17 14 13 11 11 12 12 12 14 17 16 15 13 16 16 16 17 17 15 15 14 13 15 16 14 17 16 15 10 12 12 12 11 12 14 17
16 17 16 16 15 16 14 13 12 13 13 12 11 11 11 12 14 15 17 17 18 18 17 16 16 14 15 13 13 15 15 14 14 17 16 15 15 19 14 13 13 15 17
15 15 14 14 13 12 12 12 12 12 11 11 10 9 9 11 13 15 16 15 17 15 13 9 9 11 14 13 11 13 11 10 12 16 19 16 17 19 15 14 16 15 19
14 15 13 11 10 9 10 10 10 9 8 8 6 4 4 4 5 8 11 13 13 10 8 8 8 9 13 10 9 10 11 13 14 16 19 14 17 18 17 16 18 18 20
13 12 11 10 8 7 7 7 7 6 5 4 3 2 1 1 4 5 6 7 6 6 4 2 5 8 10 9 7 11 14 13 13 11 18 13 13 18 19 16 17 17 16
14 12 10 10 11 10 9 8 8 7 5 4 4 4 6 7 5 4 1 3 4 5 5 4 2 3 6 6 9 11 15 14 15 11 12 12 14 16 15 14 15 16 16
17 16 14 13 11 9 9 8 7 7 6 5 6 6 7 11 9 4 3 4 5 3 4 4 4 3 1 2 4 6 7 9 9 10 12 13 13 14 14 16 18 18 18
17 15 14 12 11 9 8 7 6 7 8 8 8 8 8 11 11 11 7 3 4 6 7 6 3 2 3 3 5 5 4 3 1 4 5 7 9 10 9 12 15 12 10
15 15 13 12 11 10 9 8 9 9 10 9 9 8 10 10 13 12 9 5 6 5 5 5 7 6 5 5 5 6 8 7 6 7 7 7 8 9 9 7 9 9 8
15 15 14 13 12 12 12 11 10 9 10 10 10 10 11 11 11 12 11 8 7 5 6 7 10 10 8 6 7 6 6 9 8 7 7 7 7 6 6 6 8 10 13
16 15 15 14 14 13 12 11 10 11 12 11 10 10 10 10 13 13 13 14 12 11 11 11 11 14 15 14 13 12 10 7 7 6 5 5 8 10 11 12 10 11 12
18 17 16 16 14 13 13 13 12 10 9 8 8 8 8 7 7 12 12 12 13 12 10 10 10 10 9 10 12 10 11 10 9 9 9 8 9 10 11 12 14 14 14
20 18 19 18 15 14 12 10 10 8 8 7 6 6 7 7 7 6 6 5 8 6 5 5 6 7 9 8 8 9 9 9 8 8 9 9 10 11 11 11 14 14 15
21 19 19 18 16 15 11 8 9 8 7 7 7 7 7 9 9 12 9 6 6 5 4 4 4 5 6 7 8 9 10 10 11 11 11 11 11 12 12 13 13 15 16
21 20 19 19 17 14 15 14 14 13 11 13 13 13 13 14 13 13 13 12 10 7 6 6 7 7 7 7 7 7 8 9 10 10 10 11 12 13 14 15 13 14 16
19 19 19 17 16 15 15 16 17 13 15 15 15 14 12 12 11 11 10 12 7 4 6 6 6 5 5 6 6 8 9 9 9 11 11 12 13 14 16 16 16 15 14
18 19 18 15 15 15 15 16 15 15 14 11 10 10 9 7 6 6 4 2 1 4 5 4 4 4 5 6 7 8 9 9 12 13 13 13 15 16 17 17 19 19 19
21 18 16 16 16 16 16 15 13 11 9 10 11 6 4 2 0 2 3 5 4 4 3 4 4 5 5 7 7 8 9 9 9 13 14 15 15 16 18 18 19 19 17
19 19 19 19 19 18 16 14 12 9 8 7 6 5 6 4 5 1 1 4 6 6 6 6 6 6 7 8 9 10 11 11 11 12 13 15 16 17 18 20 20 21 22
19 21 20 21 20 17 15 14 12 10 8 5 4 3 2 3 1 3 5 5 6 7 7 8 9 9 10 10 11 12 13 13 11 12 14 16 18 19 20 20 21 22 23
20 20 19 18 16 15 14 13 11 9 7 5 5 5 3 3 1 2 3 4 5 6 7 9 10 11 12 13 12 13 14 14 13 13 15 18 19 20 21 22 23 23 23
19 20 19 18 16 14 14 13 11 9 7 5 3 4 3 2 2 2 2 4 6 8 10 11 12 11 10 10 11 12 12 12 11 12 16 18 19 20 22 23 24 24 22
19 18 18 17 17 17 13 11 9 6 6 5 4 3 3 2 2 2 3 6 8 10 11 11 11 10 10 10 9 8 7 6 10 14 15 17 19 22 23 24 23 22 23
20 19 19 18 19 15 13 11 10 9 8 6 4 3 2 1 1 2 5 7 9 12 12 11 9 9 7 6 5 5 8 12 13 13 14 17 21 22 22 22 22 24 24
22 21 19 18 17 15 14 11 10 9 8 6 5 5 4 3 3 4 6 8 10 14 12 10 9 8 7 6 5 10 12 11 14 17 20 18 19 20 20 22 24 25 25
Wind_Direction
216 217 220 221 224 232 240 249 252 249 240 242 243 240 234 236 246 248 239 235 232 235 243 240 236 237 240 242 238 242 246 242 245 242 254 225 241 252 239 231 225 232 237
215 214 218 222 227 237 241 243 244 239 232 238 247 240 236 233 232 240 239 237 239 237 240 238 239 236 234 242 243 242 246 246 254 256 255 243 253 249 246 242 238 236 237
209 211 214 213 215 224 234 238 232 236 243 250 242 236 237 239 239 239 237 238 243 242 237 232 239 224 234 234 234 242 245 251 247 251 255 251 249 254 233 247 241 244 247
208 206 204 204 206 214 220 222 227 240 246 239 239 244 247 255 254 251 246 241 241 250 257 237 244 234 229 223 238 247 238 241 254 259 258 249 245 255 243 252 248 246 246
205 206 201 194 196 206 218 226 229 227 230 231 227 248 275 264 262 255 252 252 259 252 241 259 257 229 214 215 245 236 243 253 270 252 262 249 246 269 259 250 246 246 250
191 190 185 181 184 191 193 196 186 178 170 168 141 114 72 55 5 293 244 259 253 250 253 246 228 242 228 252 249 237 240 255 256 258 253 254 245 251 270 261 268 271 258
161 157 152 145 140 132 131 131 128 128 124 118 97 85 60 42 30 25 344 304 280 289 292 289 204 207 221 255 268 269 251 249 242 255 266 266 254 258 268 272 263 263 265
147 139 136 130 125 126 128 133 132 130 129 108 87 75 63 40 35 34 54 32 59 44 23 13 339 66 88 337 294 269 269 255 254 252 260 273 274 275 274 270 276 277 273
139 137 133 136 133 131 131 130 129 133 119 106 88 76 66 47 43 55 61 72 49 66 47 40 19 18 359 6 340 320 313 296 352 342 309 305 301 303 301 285 277 281 285
141 136 134 133 130 127 125 119 119 121 114 108 90 69 59 48 45 48 63 66 68 86 78 60 28 17 1 354 353 344 331 14 342 322 312 310 309 304 303 278 286 281 291
143 135 127 124 123 127 124 124 127 120 108 99 93 80 66 65 47 52 62 59 62 70 61 53 32 41 46 45 47 12 339 327 326 319 314 312 312 311 322 335 324 306 293
137 128 125 129 132 127 125 121 118 115 109 105 102 94 75 59 55 53 63 77 78 80 77 76 69 61 57 66 60 59 42 26 2 351 334 351 355 348 343 328 323 316 299
140 134 133 132 129 126 123 122 123 125 122 115 104 91 79 67 58 49 62 73 82 80 83 88 76 70 50 38 35 48 41 33 25 20 9 0 344 338 331 327 325 318 305
142 140 140 136 135 135 138 140 130 126 118 111 106 98 91 71 57 52 61 58 49 60 44 49 42 44 44 44 29 31 33 28 17 5 352 343 336 336 334 331 325 323 313
147 149 149 147 148 148 125 112 113 76 84 103 96 94 101 87 70 71 71 60 58 62 52 62 56 48 48 45 46 40 33 24 18 8 359 352 344 339 337 335 328 325 318
153 157 159 159 160 148 136 109 107 111 115 117 107 107 98 103 92 81 74 69 78 68 66 59 56 50 43 36 32 28 30 22 11 1 353 347 341 335 334 326 326 326 321
160 158 158 160 161 154 145 138 127 112 115 113 113 114 117 108 94 84 80 70 65 49 73 63 51 39 29 18 12 13 8 7 355 351 344 339 336 331 328 326 324 318 316
157 156 158 161 163 160 156 155 151 149 141 136 134 128 118 108 95 76 42 311 138 56 51 47 35 18 3 357 353 351 351 347 349 344 340 339 336 333 328 327 324 323 323
153 158 159 161 162 160 159 162 163 155 150 151 153 164 176 173 274 7 15 336 338 344 5 355 347 342 350 341 342 333 331 332 333 337 339 338 333 327 322 319 319 314 312
153 154 155 155 153 160 161 165 159 161 168 173 176 148 158 203 203 215 312 326 322 320 314 305 308 312 316 319 320 321 315 318 325 326 330 330 329 326 321 320 318 317 312
150 153 153 152 161 164 170 169 165 171 174 171 162 122 190 269 2 359 332 340 332 335 331 319 309 303 299 303 311 310 311 312 313 319 322 326 327 323 319 315 314 311 308
155 156 159 159 161 167 168 164 170 165 161 158 141 130 148 218 14 0 353 340 347 337 333 326 316 311 307 305 305 306 308 307 314 315 316 319 321 318 315 314 313 309 308
161 162 157 155 160 151 161 165 165 167 156 135 120 125 142 71 72 63 13 353 343 335 331 326 320 313 310 304 303 302 305 308 313 315 315 316 315 314 315 310 311 308 306
161 160 157 154 155 164 166 171 165 162 157 132 118 113 107 117 84 70 1 353 343 338 332 328 324 321 318 307 297 300 307 297 312 316 314 312 310 312 311 309 305 305 304
161 163 160 159 161 166 164 175 167 172 177 171 156 174 181 202 315 344 341 338 337 337 334 333 331 331 330 324 313 315 300 310 314 314 319 310 307 306 303 304 305 308 307
163 165 164 166 172 171 174 179 183 186 184 192 203 214 225 247 283 304 313 322 330 336 332 323 314 313 316 314 292 298 314 321 321 319 316 311 306 305 308 310 310 308 306